| time (UTC) | temp F | wind direction | speed knots | gust knots | rain 1hr in | rain 24hr in | rain mn in | humidity % | barometer mb |
| 20260507164039 | 64 | 257 | 1.7 | 6.1 | 0.00 | 0.00 | 0.00 | 78 | 1009.8 |
| 20260507163537 | 64 | 269 | 1.7 | 7.0 | 0.00 | 0.00 | 0.00 | 78 | 1009.8 |
| 20260507163044 | 63 | 272 | 1.7 | 7.0 | 0.00 | 0.00 | 0.00 | 78 | 1009.8 |
| 20260507162535 | 63 | 271 | 1.7 | 7.8 | 0.00 | 0.00 | 0.00 | 79 | 1009.8 |
| 20260507162035 | 63 | 277 | 1.7 | 7.8 | 0.00 | 0.00 | 0.00 | 79 | 1009.8 |
| 20260507161540 | 63 | 269 | 1.7 | 6.1 | 0.00 | 0.00 | 0.00 | 79 | 1009.8 |
| 20260507161031 | 63 | 269 | 0.9 | 7.0 | 0.00 | 0.00 | 0.00 | 79 | 1009.8 |
| 20260507160530 | 63 | 272 | 2.6 | 7.0 | 0.00 | 0.00 | 0.00 | 79 | 1009.8 |
| 20260507160041 | 63 | 269 | 2.6 | 6.1 | 0.00 | 0.00 | 0.00 | 79 | 1009.7 |
| 20260507155527 | 63 | 269 | 1.7 | 4.3 | 0.00 | 0.00 | 0.00 | 80 | 1009.8 |
| 20260507155025 | 63 | 161 | 0.9 | 4.3 | 0.00 | 0.00 | 0.00 | 79 | 1009.9 |
| 20260507154526 | 62 | 269 | 0.9 | 6.1 | 0.00 | 0.00 | 0.00 | 80 | 1009.9 |
| 20260507154023 | 62 | 234 | 2.6 | 6.1 | 0.00 | 0.00 | 0.00 | 80 | 1009.9 |
| 20260507153522 | 62 | 269 | 1.7 | 7.0 | 0.00 | 0.00 | 0.00 | 80 | 1010.0 |
| 20260507153022 | 62 | 269 | 0.9 | 7.0 | 0.00 | 0.00 | 0.00 | 79 | 1010.1 |
| 20260507152522 | 62 | 1 | 0.0 | 4.3 | 0.00 | 0.00 | 0.00 | 80 | 1010.0 |
| 20260507152021 | 62 | 72 | 0.9 | 4.3 | 0.00 | 0.00 | 0.00 | 79 | 1010.0 |
| 20260507151520 | 62 | 283 | 1.7 | 4.3 | 0.00 | 0.00 | 0.00 | 79 | 1010.0 |
| 20260507151018 | 62 | 269 | 0.9 | 3.5 | 0.00 | 0.00 | 0.00 | 79 | 1010.0 |
| 20260507150518 | 62 | 178 | 0.9 | 2.6 | 0.00 | 0.00 | 0.00 | 79 | 1009.9 |
| 20260507150020 | 61 | 89 | 0.0 | 2.6 | 0.00 | 0.00 | 0.00 | 80 | 1009.9 |
| 20260507145514 | 61 | 240 | 0.0 | 2.6 | 0.00 | 0.00 | 0.00 | 80 | 1009.9 |
| 20260507145012 | 61 | 234 | 0.0 | 2.6 | 0.00 | 0.00 | 0.00 | 81 | 1009.9 |
| 20260507144516 | 60 | 269 | 0.0 | 2.6 | 0.00 | 0.00 | 0.00 | 81 | 1009.8 |
| 20260507144012 | 60 | 206 | 0.0 | 2.6 | 0.00 | 0.00 | 0.00 | 82 | 1009.8 |
| 20260507143509 | 59 | 135 | 0.0 | 2.6 | 0.00 | 0.00 | 0.00 | 83 | 1009.7 |
| 20260507143008 | 59 | 89 | 0.0 | 2.6 | 0.00 | 0.00 | 0.00 | 84 | 1009.7 |
| 20260507142505 | 58 | 178 | 0.0 | 1.7 | 0.00 | 0.00 | 0.00 | 84 | 1009.6 |
| 20260507142003 | 58 | 234 | 0.0 | 1.7 | 0.00 | 0.00 | 0.00 | 86 | 1009.6 |
| 20260507141508 | 57 | 178 | 0.0 | 1.7 | 0.00 | 0.00 | 0.00 | 86 | 1009.5 |
| 20260507141001 | 57 | 89 | 0.0 | 1.7 | 0.00 | 0.00 | 0.00 | 87 | 1009.5 |
| 20260507140559 | 57 | 46 | 0.0 | 1.7 | 0.00 | 0.00 | 0.00 | 87 | 1009.5 |
| 20260507140107 | 56 | 145 | 0.0 | 1.7 | 0.00 | 0.00 | 0.00 | 87 | 1009.4 |
| 20260507135556 | 56 | 89 | 0.0 | 1.7 | 0.00 | 0.00 | 0.00 | 86 | 1009.4 |
| 20260507135054 | 56 | 152 | 0.0 | 1.7 | 0.00 | 0.00 | 0.00 | 86 | 1009.4 |
| 20260507134553 | 56 | 135 | 0.0 | 1.7 | 0.00 | 0.00 | 0.00 | 85 | 1009.3 |
| 20260507134052 | 55 | 46 | 0.0 | 0.9 | 0.00 | 0.00 | 0.00 | 85 | 1009.1 |
| 20260507133550 | 55 | 46 | 0.0 | 0.9 | 0.00 | 0.00 | 0.00 | 85 | 1009.1 |
| 20260507133050 | 55 | 314 | 0.0 | 0.9 | 0.00 | 0.00 | 0.00 | 84 | 1009.1 |
| 20260507132547 | 55 | 63 | 0.0 | 1.7 | 0.00 | 0.00 | 0.00 | 84 | 1009.1 |
| 20260507132047 | 55 | 135 | 0.0 | 1.7 | 0.00 | 0.00 | 0.00 | 84 | 1009.0 |
| 20260507131548 | 55 | 89 | 0.0 | 1.7 | 0.00 | 0.00 | 0.00 | 84 | 1009.0 |
| 20260507131046 | 55 | 28 | 0.0 | 0.9 | 0.00 | 0.00 | 0.00 | 84 | 1009.0 |
| 20260507130545 | 55 | 46 | 0.0 | 0.9 | 0.00 | 0.00 | 0.00 | 84 | 1008.9 |
| 20260507130058 | 55 | 89 | 0.0 | 0.9 | 0.00 | 0.00 | 0.00 | 84 | 1008.9 |
| 20260507125543 | 55 | 89 | 0.0 | 1.7 | 0.00 | 0.00 | 0.00 | 84 | 1008.9 |
| 20260507125043 | 55 | 46 | 0.0 | 1.7 | 0.00 | 0.00 | 0.00 | 84 | 1008.9 |
| 20260507124558 | 55 | 46 | 0.0 | 1.7 | 0.00 | 0.00 | 0.00 | 84 | 1008.9 |
| 20260507124042 | 56 | 46 | 0.0 | 0.9 | 0.00 | 0.00 | 0.00 | 84 | 1008.9 |
| 20260507123542 | 56 | 63 | 0.0 | 0.9 | 0.00 | 0.00 | 0.00 | 84 | 1008.9 |
| 20260507123042 | 56 | 314 | 0.0 | 1.7 | 0.00 | 0.00 | 0.00 | 83 | 1008.9 |
| 20260507122541 | 56 | 46 | 0.0 | 1.7 | 0.00 | 0.00 | 0.00 | 83 | 1008.8 |
| 20260507122041 | 56 | 46 | 0.0 | 0.9 | 0.00 | 0.00 | 0.00 | 83 | 1008.9 |
| 20260507121542 | 56 | 135 | 0.0 | 0.9 | 0.00 | 0.00 | 0.00 | 83 | 1008.9 |
| 20260507121041 | 56 | 76 | 0.0 | 0.9 | 0.00 | 0.00 | 0.00 | 83 | 1008.8 |
| 20260507120539 | 56 | 117 | 0.0 | 0.9 | 0.00 | 0.00 | 0.00 | 83 | 1008.9 |
| 20260507120040 | 56 | 89 | 0.0 | 0.9 | 0.00 | 0.00 | 0.00 | 83 | 1008.9 |
| 20260507115539 | 56 | 89 | 0.0 | 1.7 | 0.00 | 0.00 | 0.00 | 83 | 1008.9 |
| 20260507115038 | 56 | 135 | 0.0 | 1.7 | 0.00 | 0.00 | 0.00 | 83 | 1008.9 |
| 20260507114549 | 56 | 89 | 0.0 | 1.7 | 0.00 | 0.00 | 0.00 | 83 | 1008.8 |
| 20260507114037 | 56 | 46 | 0.0 | 1.7 | 0.00 | 0.00 | 0.00 | 83 | 1008.9 |
| 20260507113536 | 56 | 89 | 0.0 | 1.7 | 0.00 | 0.00 | 0.00 | 83 | 1008.8 |
| 20260507113037 | 56 | 28 | 0.0 | 0.9 | 0.00 | 0.00 | 0.00 | 83 | 1008.9 |
| 20260507112535 | 56 | 1 | 0.0 | 0.9 | 0.00 | 0.00 | 0.00 | 83 | 1008.9 |
| 20260507112038 | 57 | 1 | 0.0 | 1.7 | 0.00 | 0.00 | 0.00 | 82 | 1009.0 |
| 20260507111534 | 57 | 56 | 0.0 | 1.7 | 0.00 | 0.00 | 0.00 | 83 | 1009.0 |
| 20260507111035 | 57 | 331 | 0.0 | 1.7 | 0.00 | 0.00 | 0.00 | 82 | 1009.1 |
| 20260507110533 | 57 | 35 | 0.0 | 1.7 | 0.00 | 0.00 | 0.00 | 83 | 1009.1 |
| 20260507110042 | 57 | 63 | 0.0 | 1.7 | 0.00 | 0.00 | 0.00 | 83 | 1009.2 |
| 20260507105532 | 57 | 1 | 0.0 | 1.7 | 0.00 | 0.00 | 0.00 | 83 | 1009.3 |
| 20260507105032 | 57 | 269 | 0.0 | 0.9 | 0.00 | 0.00 | 0.00 | 83 | 1009.2 |
| 20260507104532 | 57 | 135 | 0.0 | 0.9 | 0.00 | 0.00 | 0.00 | 82 | 1009.2 |
| 20260507104032 | 57 | 46 | 0.0 | 1.7 | 0.00 | 0.00 | 0.00 | 82 | 1009.1 |
| 20260507103532 | 57 | 56 | 0.0 | 1.7 | 0.00 | 0.00 | 0.00 | 82 | 1009.2 |
| 20260507103031 | 57 | 63 | 0.0 | 1.7 | 0.00 | 0.00 | 0.00 | 81 | 1009.2 |
| 20260507102531 | 57 | 46 | 0.0 | 3.5 | 0.00 | 0.00 | 0.00 | 81 | 1009.2 |
| 20260507102031 | 57 | 46 | 0.9 | 3.5 | 0.00 | 0.00 | 0.00 | 81 | 1009.2 |
| 20260507101530 | 57 | 68 | 0.9 | 3.5 | 0.00 | 0.00 | 0.00 | 81 | 1009.3 |
| 20260507101030 | 57 | 72 | 0.0 | 2.6 | 0.00 | 0.00 | 0.00 | 81 | 1009.2 |
| 20260507100528 | 57 | 56 | 0.9 | 2.6 | 0.00 | 0.00 | 0.00 | 81 | 1009.3 |
| 20260507100028 | 57 | 63 | 0.0 | 1.7 | 0.00 | 0.00 | 0.00 | 81 | 1009.2 |
| 20260507095527 | 57 | 46 | 0.0 | 1.7 | 0.00 | 0.00 | 0.00 | 81 | 1009.4 |
| 20260507095026 | 57 | 56 | 0.9 | 1.7 | 0.00 | 0.00 | 0.00 | 80 | 1009.3 |
| 20260507094525 | 57 | 89 | 0.0 | 1.7 | 0.00 | 0.00 | 0.00 | 80 | 1009.3 |
| 20260507094024 | 57 | 108 | 0.9 | 2.6 | 0.00 | 0.00 | 0.00 | 80 | 1009.4 |
| 20260507093524 | 57 | 89 | 0.0 | 2.6 | 0.00 | 0.00 | 0.00 | 80 | 1009.4 |
| 20260507093033 | 57 | 35 | 0.0 | 1.7 | 0.00 | 0.00 | 0.00 | 80 | 1009.4 |
| 20260507092523 | 57 | 89 | 0.0 | 2.6 | 0.00 | 0.00 | 0.00 | 80 | 1009.4 |
| 20260507092022 | 57 | 1 | 0.9 | 2.6 | 0.00 | 0.00 | 0.00 | 80 | 1009.5 |
| 20260507091534 | 57 | 89 | 0.0 | 1.7 | 0.00 | 0.00 | 0.00 | 80 | 1009.6 |
| 20260507091021 | 58 | 46 | 0.9 | 1.7 | 0.00 | 0.00 | 0.00 | 80 | 1009.7 |
| 20260507090520 | 58 | 89 | 0.0 | 1.7 | 0.00 | 0.00 | 0.00 | 80 | 1009.7 |
| 20260507090019 | 58 | 63 | 0.0 | 2.6 | 0.00 | 0.00 | 0.00 | 80 | 1009.8 |
| 20260507085518 | 58 | 28 | 0.9 | 2.6 | 0.00 | 0.00 | 0.00 | 80 | 1009.9 |
| 20260507085018 | 58 | 108 | 0.0 | 1.7 | 0.00 | 0.00 | 0.00 | 79 | 1009.9 |
| 20260507084521 | 58 | 53 | 0.0 | 1.7 | 0.00 | 0.00 | 0.00 | 79 | 1010.0 |
| 20260507084016 | 58 | 28 | 0.0 | 3.5 | 0.00 | 0.00 | 0.00 | 79 | 1010.0 |
| 20260507083516 | 58 | 28 | 0.9 | 0.0 | 1.07 | 0.98 | 0.00 | 79 | 1010.1 |
| 20260507083016 | 58 | 89 | 0.0 | 1.7 | 0.00 | 0.00 | 0.00 | 79 | 1010.1 |
| 20260507082515 | 58 | 63 | 0.9 | 1.7 | 0.00 | 0.00 | 0.00 | 79 | 1010.1 |
| 20260507082017 | 58 | 89 | 0.0 | 1.7 | 0.00 | 0.00 | 0.00 | 79 | 1010.2 |
| 20260507081514 | 58 | 46 | 0.9 | 1.7 | 0.00 | 0.00 | 0.00 | 78 | 1010.3 |
| 20260507081013 | 58 | 1 | 0.0 | 1.7 | 0.00 | 0.00 | 0.00 | 78 | 1010.3 |
| 20260507080512 | 59 | 46 | 0.0 | 1.7 | 0.00 | 0.00 | 0.00 | 78 | 1010.3 |
| 20260507080012 | 59 | 46 | 0.0 | 0.9 | 0.00 | 0.00 | 0.00 | 78 | 1010.3 |
| 20260507075510 | 59 | 46 | 0.0 | 0.9 | 0.00 | 0.00 | 0.00 | 78 | 1010.3 |
| 20260507075011 | 59 | 46 | 0.0 | 0.9 | 0.00 | 0.00 | 0.00 | 78 | 1010.3 |
| 20260507074510 | 59 | 46 | 0.0 | 0.9 | 0.00 | 0.00 | 0.00 | 78 | 1010.2 |
| 20260507074009 | 59 | 135 | 0.0 | 0.9 | 0.00 | 0.00 | 0.00 | 78 | 1010.1 |
| 20260507073509 | 59 | 269 | 0.0 | 0.9 | 0.00 | 0.00 | 0.00 | 78 | 1010.1 |
| 20260507073009 | 59 | 46 | 0.0 | 0.9 | 0.00 | 0.00 | 0.00 | 77 | 1010.2 |
| 20260507072508 | 59 | 314 | 0.0 | 0.9 | 0.00 | 0.00 | 0.00 | 77 | 1010.1 |
| 20260507072009 | 59 | 46 | 0.0 | 0.9 | 0.00 | 0.00 | 0.00 | 77 | 1010.2 |
| 20260507071510 | 59 | 135 | 0.0 | 0.9 | 0.00 | 0.00 | 0.00 | 77 | 1010.2 |
| 20260507071007 | 60 | 89 | 0.0 | 1.7 | 0.00 | 0.00 | 0.00 | 77 | 1010.3 |
| 20260507070506 | 60 | 46 | 0.0 | 1.7 | 0.00 | 0.00 | 0.00 | 78 | 1010.3 |
| 20260507070008 | 60 | 89 | 0.0 | 1.7 | 0.00 | 0.00 | 0.00 | 78 | 1010.3 |
| 20260507065503 | 60 | 46 | 0.0 | 1.7 | 0.00 | 0.00 | 0.00 | 78 | 1010.3 |
| 20260507065003 | 60 | 89 | 0.0 | 1.7 | 0.00 | 0.00 | 0.00 | 78 | 1010.3 |
| 20260507064503 | 60 | 63 | 0.0 | 1.7 | 0.00 | 0.00 | 0.00 | 77 | 1010.3 |
| 20260507064004 | 60 | 152 | 0.0 | 1.7 | 0.00 | 0.00 | 0.00 | 77 | 1010.3 |
| 20260507063502 | 60 | 135 | 0.0 | 1.7 | 0.00 | 0.00 | 0.00 | 76 | 1010.5 |
| 20260507063008 | 60 | 303 | 0.0 | 1.7 | 0.00 | 0.00 | 0.00 | 75 | 1010.4 |
| 20260507062505 | 60 | 46 | 0.0 | 0.9 | 0.00 | 0.00 | 0.00 | 74 | 1010.4 |
| 20260507062002 | 60 | 46 | 0.0 | 0.9 | 0.00 | 0.00 | 0.00 | 74 | 1010.4 |
| 20260507061503 | 60 | 46 | 0.0 | 1.7 | 0.00 | 0.00 | 0.00 | 74 | 1010.5 |
| 20260507061003 | 60 | 46 | 0.0 | 1.7 | 0.00 | 0.00 | 0.00 | 74 | 1010.5 |
| 20260507060502 | 60 | 269 | 0.0 | 0.9 | 0.00 | 0.00 | 0.00 | 73 | 1010.5 |
| 20260507060002 | 60 | 269 | 0.0 | 0.9 | 0.00 | 0.00 | 0.00 | 73 | 1010.6 |
| 20260507055502 | 60 | 89 | 0.0 | 0.9 | 0.00 | 0.00 | 0.00 | 73 | 1010.5 |
| 20260507055001 | 61 | 152 | 0.0 | 1.7 | 0.00 | 0.00 | 0.00 | 73 | 1010.4 |
| 20260507054502 | 61 | 28 | 0.0 | 0.9 | 0.00 | 0.00 | 0.00 | 73 | 1010.4 |
| 20260507054001 | 61 | 135 | 0.0 | 1.7 | 0.00 | 0.00 | 0.00 | 73 | 1010.4 |
| 20260507053501 | 61 | 89 | 0.0 | 1.7 | 0.00 | 0.00 | 0.00 | 73 | 1010.4 |
| 20260507053000 | 61 | 250 | 0.0 | 0.9 | 0.00 | 0.00 | 0.00 | 73 | 1010.3 |
| 20260507052500 | 61 | 28 | 0.0 | 1.7 | 0.00 | 0.00 | 0.00 | 72 | 1010.2 |
| 20260507052001 | 61 | 223 | 0.0 | 1.7 | 0.00 | 0.00 | 0.00 | 73 | 1010.3 |
| 20260507051604 | 61 | 46 | 0.0 | 1.7 | 0.00 | 0.00 | 0.00 | 72 | 1010.3 |
| 20260507051102 | 61 | 72 | 0.0 | 0.9 | 0.00 | 0.00 | 0.00 | 72 | 1010.3 |
| 20260507050600 | 61 | 63 | 0.0 | 0.9 | 0.00 | 0.00 | 0.00 | 72 | 1010.3 |
| 20260507045602 | 61 | 89 | 0.0 | 1.7 | 0.00 | 0.00 | 0.00 | 72 | 1010.2 |
| 20260507045100 | 61 | 89 | 0.0 | 0.9 | 0.00 | 0.00 | 0.00 | 72 | 1010.2 |
| 20260507044600 | 62 | 46 | 0.0 | 0.9 | 0.00 | 0.00 | 0.00 | 72 | 1010.2 |
| 20260507044059 | 62 | 89 | 0.0 | 0.9 | 0.00 | 0.00 | 0.00 | 72 | 1010.3 |
| 20260507043559 | 62 | 46 | 0.0 | 1.7 | 0.00 | 0.00 | 0.00 | 72 | 1010.2 |
| 20260507043059 | 62 | 46 | 0.0 | 1.7 | 0.00 | 0.00 | 0.00 | 71 | 1010.2 |
| 20260507042559 | 62 | 135 | 0.0 | 1.7 | 0.00 | 0.00 | 0.00 | 71 | 1010.2 |
| 20260507042101 | 62 | 269 | 0.0 | 1.7 | 0.00 | 0.00 | 0.00 | 71 | 1010.2 |
| 20260507041559 | 62 | 46 | 0.0 | 1.7 | 0.00 | 0.00 | 0.00 | 71 | 1010.2 |
| 20260507041058 | 62 | 1 | 0.0 | 2.6 | 0.00 | 0.00 | 0.00 | 71 | 1010.2 |
| 20260507040558 | 62 | 178 | 0.0 | 3.5 | 0.00 | 0.00 | 0.00 | 71 | 1010.2 |
| 20260507040110 | 62 | 269 | 0.9 | 4.3 | 0.00 | 0.00 | 0.00 | 71 | 1010.1 |
| 20260507035557 | 62 | 269 | 0.9 | 5.2 | 0.00 | 0.00 | 0.00 | 71 | 1010.0 |
| 20260507035100 | 62 | 46 | 0.9 | 5.2 | 0.00 | 0.00 | 0.00 | 71 | 1010.0 |
| 20260507034606 | 62 | 269 | 1.7 | 4.3 | 0.00 | 0.00 | 0.00 | 71 | 1009.9 |
| 20260507034056 | 62 | 269 | 1.7 | 5.2 | 0.00 | 0.00 | 0.00 | 72 | 1009.9 |
| 20260507033557 | 62 | 279 | 1.7 | 6.1 | 0.00 | 0.00 | 0.00 | 72 | 1009.9 |
| 20260507033103 | 62 | 161 | 0.9 | 7.0 | 0.00 | 0.00 | 0.00 | 71 | 1009.9 |
| 20260507032557 | 62 | 269 | 0.0 | 7.0 | 0.00 | 0.00 | 0.00 | 71 | 1009.9 |
| 20260507032059 | 63 | 178 | 1.7 | 7.0 | 0.00 | 0.00 | 0.00 | 70 | 1009.8 |
| 20260507031613 | 63 | 290 | 0.9 | 7.0 | 0.00 | 0.00 | 0.00 | 71 | 1009.8 |
| 20260507031058 | 63 | 20 | 1.7 | 6.1 | 0.00 | 0.00 | 0.00 | 72 | 1009.7 |
| 20260507030556 | 63 | 269 | 1.7 | 6.1 | 0.00 | 0.00 | 0.00 | 73 | 1009.6 |
| 20260507030056 | 63 | 240 | 0.9 | 6.1 | 0.00 | 0.00 | 0.00 | 73 | 1009.5 |
| 20260507025555 | 63 | 269 | 1.7 | 6.1 | 0.00 | 0.00 | 0.00 | 73 | 1009.5 |
| 20260507025055 | 63 | 258 | 1.7 | 6.1 | 0.00 | 0.00 | 0.00 | 73 | 1009.4 |
| 20260507024556 | 63 | 295 | 0.9 | 6.1 | 0.00 | 0.00 | 0.00 | 73 | 1009.4 |
| 20260507024054 | 64 | 269 | 2.6 | 7.0 | 0.00 | 0.00 | 0.00 | 73 | 1009.4 |
| 20260507023554 | 64 | 258 | 0.9 | 7.0 | 0.00 | 0.00 | 0.00 | 73 | 1009.4 |
| 20260507023055 | 64 | 135 | 0.0 | 7.0 | 0.00 | 0.00 | 0.00 | 73 | 1009.3 |
| 20260507022554 | 64 | 271 | 1.7 | 7.0 | 0.00 | 0.00 | 0.00 | 72 | 1009.3 |
| 20260507022053 | 64 | 269 | 1.7 | 6.1 | 0.00 | 0.00 | 0.00 | 72 | 1009.2 |
| 20260507021554 | 65 | 283 | 1.7 | 5.2 | 0.00 | 0.00 | 0.00 | 72 | 1009.2 |
| 20260507021054 | 65 | 274 | 1.7 | 7.0 | 0.00 | 0.00 | 0.00 | 71 | 1009.3 |
| 20260507020554 | 65 | 223 | 0.9 | 7.0 | 0.00 | 0.00 | 0.00 | 72 | 1009.1 |
| 20260507020054 | 65 | 178 | 0.9 | 7.8 | 0.00 | 0.00 | 0.00 | 71 | 1009.1 |
| 20260507015552 | 65 | 314 | 3.5 | 9.6 | 0.00 | 0.00 | 0.00 | 71 | 1009.1 |
| 20260507015052 | 66 | 265 | 3.5 | 9.6 | 0.00 | 0.00 | 0.00 | 70 | 1009.2 |
| 20260507014556 | 66 | 331 | 2.6 | 9.6 | 0.00 | 0.00 | 0.00 | 70 | 1009.1 |
| 20260507014052 | 66 | 178 | 2.6 | 9.6 | 0.00 | 0.00 | 0.00 | 69 | 1009.1 |
| 20260507013551 | 67 | 269 | 1.7 | 9.6 | 0.00 | 0.00 | 0.00 | 69 | 1009.1 |
| 20260507013109 | 68 | 269 | 2.6 | 8.7 | 0.00 | 0.00 | 0.00 | 68 | 1009.1 |
| 20260507012553 | 68 | 269 | 2.6 | 8.7 | 0.00 | 0.00 | 0.00 | 67 | 1009.1 |
| 20260507012051 | 69 | 269 | 2.6 | 9.6 | 0.00 | 0.00 | 0.00 | 67 | 1009.1 |
| 20260507011552 | 69 | 276 | 3.5 | 9.6 | 0.00 | 0.00 | 0.00 | 65 | 1009.1 |
| 20260507011051 | 69 | 286 | 2.6 | 8.7 | 0.00 | 0.00 | 0.00 | 66 | 1009.0 |
| 20260507010551 | 69 | 283 | 1.7 | 7.8 | 0.00 | 0.00 | 0.00 | 66 | 1009.0 |
| 20260507005551 | 70 | 264 | 4.3 | 10.4 | 0.00 | 0.00 | 0.00 | 64 | 1009.1 |
| 20260507005050 | 70 | 117 | 1.7 | 8.7 | 0.00 | 0.00 | 0.00 | 65 | 1009.0 |
| 20260507004551 | 70 | 117 | 2.6 | 7.8 | 0.00 | 0.00 | 0.00 | 65 | 1009.0 |
| 20260507004053 | 70 | 286 | 1.7 | 9.6 | 0.00 | 0.00 | 0.00 | 66 | 1009.0 |
| 20260507003616 | 71 | 269 | 2.6 | 9.6 | 0.00 | 0.00 | 0.00 | 65 | 1009.0 |
| 20260507003148 | 71 | 271 | 2.6 | 9.6 | 0.00 | 0.00 | 0.00 | 65 | 1009.0 |
| 20260507002512 | 71 | 269 | 3.5 | 9.6 | 0.00 | 0.00 | 0.00 | 63 | 1009.0 |
| 20260507002032 | 72 | 269 | 2.6 | 10.4 | 0.00 | 0.00 | 0.00 | 65 | 1009.0 |
| 20260507001549 | 72 | 72 | 1.7 | 10.4 | 0.00 | 0.00 | 0.00 | 64 | 1008.9 |
| 20260507001100 | 72 | 271 | 2.6 | 9.6 | 0.00 | 0.00 | 0.00 | 64 | 1008.8 |
| 20260507001009 | 72 | 277 | 2.6 | 9.6 | 0.00 | 0.00 | 0.00 | 64 | 1008.9 |
| 20260507000625 | 72 | 269 | 2.6 | 12.2 | 0.00 | 0.00 | 0.00 | 65 | 1008.8 |
| 20260507000018 | 72 | 72 | 3.5 | 14.8 | 0.00 | 0.00 | 0.00 | 64 | 1008.9 |
| 20260506235529 | 72 | 278 | 3.5 | 14.8 | 0.00 | 0.00 | 0.00 | 62 | 1008.8 |
| 20260506235044 | 72 | 79 | 2.6 | 9.6 | 0.00 | 0.00 | 0.00 | 62 | 1008.8 |
| 20260506234536 | 71 | 271 | 3.5 | 13.9 | 0.00 | 0.00 | 0.00 | 62 | 1008.8 |
| 20260506234031 | 71 | 269 | 4.3 | 13.9 | 0.00 | 0.00 | 0.00 | 63 | 1008.8 |
| 20260506233532 | 71 | 274 | 4.3 | 9.6 | 0.00 | 0.00 | 0.00 | 63 | 1008.8 |
| 20260506233051 | 71 | 269 | 3.5 | 10.4 | 0.00 | 0.00 | 0.00 | 62 | 1008.8 |
| 20260506232632 | 71 | 260 | 4.3 | 10.4 | 0.00 | 0.00 | 0.00 | 60 | 1008.8 |
| 20260506232031 | 71 | 284 | 2.6 | 11.3 | 0.00 | 0.00 | 0.00 | 61 | 1008.8 |
| 20260506231530 | 71 | 300 | 2.6 | 8.7 | 0.00 | 0.00 | 0.00 | 62 | 1008.8 |
| 20260506231028 | 70 | 269 | 3.5 | 10.4 | 0.00 | 0.00 | 0.00 | 58 | 1008.8 |
| 20260506230528 | 71 | 271 | 4.3 | 10.4 | 0.00 | 0.00 | 0.00 | 55 | 1008.9 |
| 20260506230028 | 71 | 269 | 3.5 | 11.3 | 0.00 | 0.00 | 0.00 | 54 | 1008.9 |
| 20260506225526 | 71 | 279 | 4.3 | 11.3 | 0.00 | 0.00 | 0.00 | 55 | 1009.0 |
| 20260506225025 | 70 | 281 | 2.6 | 7.8 | 0.00 | 0.00 | 0.00 | 59 | 1009.0 |
| 20260506224523 | 70 | 271 | 2.6 | 9.6 | 0.00 | 0.00 | 0.00 | 63 | 1009.1 |
| 20260506224022 | 69 | 269 | 2.6 | 9.6 | 0.00 | 0.00 | 0.00 | 66 | 1009.2 |
| 20260506223520 | 68 | 269 | 2.6 | 9.6 | 0.00 | 0.00 | 0.00 | 70 | 1009.3 |
| 20260506223021 | 68 | 278 | 5.2 | 11.3 | 0.00 | 0.00 | 0.00 | 69 | 1009.5 |
| 20260506222518 | 68 | 269 | 3.5 | 11.3 | 0.00 | 0.00 | 0.00 | 71 | 1009.5 |
| 20260506222020 | 68 | 271 | 3.5 | 10.4 | 0.00 | 0.00 | 0.00 | 71 | 1009.6 |
| 20260506221518 | 68 | 269 | 5.2 | 10.4 | 0.00 | 0.00 | 0.00 | 70 | 1009.6 |
| 20260506221017 | 68 | 269 | 3.5 | 10.4 | 0.00 | 0.00 | 0.00 | 71 | 1009.6 |
| 20260506220517 | 67 | 258 | 3.5 | 12.2 | 0.00 | 0.00 | 0.00 | 72 | 1009.7 |
| 20260506220023 | 67 | 276 | 5.2 | 12.2 | 0.00 | 0.00 | 0.00 | 71 | 1009.8 |
| 20260506215515 | 67 | 28 | 3.5 | 11.3 | 0.00 | 0.00 | 0.00 | 72 | 1009.8 |
| 20260506215014 | 68 | 269 | 4.3 | 11.3 | 0.00 | 0.00 | 0.00 | 69 | 1009.8 |
| 20260506214514 | 68 | 271 | 2.6 | 9.6 | 0.00 | 0.00 | 0.00 | 72 | 1009.8 |
| 20260506214016 | 67 | 255 | 2.6 | 12.2 | 0.00 | 0.00 | 0.00 | 71 | 1009.9 |
| 20260506213512 | 67 | 250 | 4.3 | 12.2 | 0.00 | 0.00 | 0.00 | 71 | 1010.0 |
| 20260506213011 | 66 | 262 | 3.5 | 12.2 | 0.00 | 0.00 | 0.00 | 71 | 1010.1 |
| 20260506212511 | 67 | 274 | 5.2 | 12.2 | 0.00 | 0.00 | 0.00 | 71 | 1010.2 |
| 20260506212012 | 67 | 253 | 4.3 | 11.3 | 0.00 | 0.00 | 0.00 | 70 | 1010.2 |
| 20260506211519 | 67 | 271 | 4.3 | 11.3 | 0.00 | 0.00 | 0.00 | 71 | 1010.2 |
| 20260506211011 | 67 | 262 | 2.6 | 10.4 | 0.00 | 0.00 | 0.00 | 73 | 1010.3 |
| 20260506210517 | 66 | 183 | 4.3 | 12.2 | 0.00 | 0.00 | 0.00 | 71 | 1010.4 |
| 20260506210021 | 66 | 245 | 5.2 | 15.6 | 0.00 | 0.00 | 0.00 | 70 | 1010.3 |
| 20260506205510 | 67 | 223 | 5.2 | 15.6 | 0.00 | 0.00 | 0.00 | 69 | 1010.4 |
| 20260506205019 | 67 | 259 | 4.3 | 10.4 | 0.00 | 0.00 | 0.00 | 70 | 1010.4 |
| 20260506204510 | 67 | 257 | 3.5 | 10.4 | 0.00 | 0.00 | 0.00 | 71 | 1010.3 |
| 20260506204009 | 67 | 265 | 5.2 | 13.0 | 0.00 | 0.00 | 0.00 | 71 | 1010.3 |
| 20260506203510 | 66 | 274 | 3.5 | 13.0 | 0.00 | 0.00 | 0.00 | 71 | 1010.4 |
| 20260506203009 | 66 | 269 | 3.5 | 13.0 | 0.00 | 0.00 | 0.00 | 70 | 1010.5 |
| 20260506202513 | 66 | 283 | 3.5 | 13.0 | 0.00 | 0.00 | 0.00 | 70 | 1010.5 |
| 20260506202009 | 67 | 269 | 5.2 | 13.0 | 0.00 | 0.00 | 0.00 | 68 | 1010.6 |
| 20260506201509 | 67 | 269 | 3.5 | 12.2 | 0.00 | 0.00 | 0.00 | 70 | 1010.6 |
| 20260506201013 | 67 | 264 | 4.3 | 12.2 | 0.00 | 0.00 | 0.00 | 70 | 1010.6 |
| 20260506200508 | 67 | 286 | 3.5 | 11.3 | 0.00 | 0.00 | 0.00 | 68 | 1010.7 |
| 20260506200015 | 67 | 269 | 4.3 | 12.2 | 0.00 | 0.00 | 0.00 | 69 | 1010.8 |
| 20260506195506 | 67 | 314 | 4.3 | 12.2 | 0.00 | 0.00 | 0.00 | 69 | 1010.8 |
| 20260506195008 | 67 | 279 | 2.6 | 10.4 | 0.00 | 0.00 | 0.00 | 70 | 1010.9 |
| 20260506194507 | 67 | 253 | 4.3 | 10.4 | 0.00 | 0.00 | 0.00 | 69 | 1010.9 |
| 20260506194006 | 68 | 271 | 5.2 | 10.4 | 0.00 | 0.00 | 0.00 | 68 | 1011.1 |
| 20260506193504 | 67 | 269 | 3.5 | 10.4 | 0.00 | 0.00 | 0.00 | 69 | 1011.0 |
| 20260506193007 | 67 | 274 | 3.5 | 9.6 | 0.00 | 0.00 | 0.00 | 69 | 1011.1 |
| 20260506192503 | 67 | 271 | 3.5 | 13.0 | 0.00 | 0.00 | 0.00 | 69 | 1011.1 |
| 20260506192003 | 66 | 284 | 3.5 | 13.0 | 0.00 | 0.00 | 0.00 | 71 | 1011.2 |
| 20260506191502 | 67 | 20 | 2.6 | 10.4 | 0.00 | 0.00 | 0.00 | 72 | 1011.3 |
| 20260506191002 | 66 | 269 | 1.7 | 10.4 | 0.00 | 0.00 | 0.00 | 74 | 1011.3 |
| 20260506190601 | 66 | 276 | 2.6 | 10.4 | 0.00 | 0.00 | 0.00 | 73 | 1011.3 |
| 20260506190100 | 66 | 269 | 3.5 | 9.6 | 0.00 | 0.00 | 0.00 | 73 | 1011.3 |
| 20260506185558 | 66 | 269 | 2.6 | 11.3 | 0.00 | 0.00 | 0.00 | 73 | 1011.4 |
| 20260506185057 | 65 | 269 | 5.2 | 11.3 | 0.00 | 0.00 | 0.00 | 72 | 1011.5 |
| 20260506184610 | 65 | 276 | 4.3 | 10.4 | 0.00 | 0.00 | 0.00 | 73 | 1011.5 |
| 20260506184056 | 65 | 178 | 2.6 | 9.6 | 0.00 | 0.00 | 0.00 | 73 | 1011.5 |
| 20260506183555 | 65 | 283 | 3.5 | 8.7 | 0.00 | 0.00 | 0.00 | 73 | 1011.5 |
| 20260506183054 | 65 | 269 | 4.3 | 10.4 | 0.00 | 0.00 | 0.00 | 72 | 1011.6 |
| 20260506182553 | 65 | 269 | 4.3 | 10.4 | 0.00 | 0.00 | 0.00 | 72 | 1011.7 |
| 20260506182052 | 66 | 274 | 3.5 | 9.6 | 0.00 | 0.00 | 0.00 | 72 | 1011.7 |
| 20260506181550 | 65 | 262 | 2.6 | 9.6 | 0.00 | 0.00 | 0.00 | 72 | 1011.6 |
| 20260506181050 | 65 | 265 | 2.6 | 8.7 | 0.00 | 0.00 | 0.00 | 72 | 1011.7 |
| 20260506180548 | 65 | 178 | 3.5 | 7.8 | 0.00 | 0.00 | 0.00 | 72 | 1011.7 |
| 20260506180047 | 65 | 1 | 2.6 | 7.8 | 0.00 | 0.00 | 0.00 | 71 | 1011.7 |
| 20260506175545 | 66 | 277 | 1.7 | 7.8 | 0.00 | 0.00 | 0.00 | 71 | 1011.6 |
| 20260506175044 | 66 | 260 | 1.7 | 7.8 | 0.00 | 0.00 | 0.00 | 72 | 1011.6 |
| 20260506174546 | 66 | 223 | 2.6 | 7.8 | 0.00 | 0.00 | 0.00 | 71 | 1011.6 |
| 20260506174042 | 66 | 262 | 1.7 | 6.1 | 0.00 | 0.00 | 0.00 | 72 | 1011.5 |
| 20260506173543 | 66 | 173 | 1.7 | 7.0 | 0.00 | 0.00 | 0.00 | 72 | 1011.5 |
| 20260506173045 | 65 | 241 | 1.7 | 7.0 | 0.00 | 0.00 | 0.00 | 72 | 1011.6 |
| 20260506172539 | 65 | 269 | 1.7 | 7.0 | 0.00 | 0.00 | 0.00 | 72 | 1011.5 |
| 20260506172039 | 65 | 274 | 1.7 | 7.0 | 0.00 | 0.00 | 0.00 | 72 | 1011.5 |
| 20260506171547 | 65 | 63 | 1.7 | 6.1 | 0.00 | 0.00 | 0.00 | 71 | 1011.6 |
| 20260506171038 | 66 | 274 | 0.9 | 6.1 | 0.00 | 0.00 | 0.00 | 71 | 1011.6 |
| 20260506170537 | 65 | 269 | 1.7 | 6.1 | 0.00 | 0.00 | 0.00 | 72 | 1011.5 |
| 20260506170037 | 65 | 169 | 1.7 | 5.2 | 0.00 | 0.00 | 0.00 | 71 | 1011.7 |
| 20260506165536 | 65 | 135 | 1.7 | 6.1 | 0.00 | 0.00 | 0.00 | 71 | 1011.6 |
| 20260506165035 | 65 | 169 | 1.7 | 6.1 | 0.00 | 0.00 | 0.00 | 71 | 1011.7 |
| 20260506164543 | 65 | 269 | 0.9 | 6.1 | 0.00 | 0.00 | 0.00 | 70 | 1011.7 |